Weather History for K40J - February, 2013

Change the Weather History Date:

Monday, February 11, 2013

  Actual Average (KCTY) Record (KCTY)
Temperature  
Mean Temperature 66 °F 56 °F  
Max Temperature 75 °F 70 °F 80 °F (1999)
Min Temperature 57 °F 43 °F 30 °F (2008)
Degree Days  
Heating Degree Days 0 9  
Month to date heating degree days 107  
Since 1 July heating degree days 985  
Cooling Degree Days 1 1  
Month to date cooling degree days 11  
Year to date cooling degree days 22  
Growing Degree Days 16 (Base 50)    
Moisture  
Dew Point 61 °F    
Average Humidity 79    
Maximum Humidity 90    
Minimum Humidity 66    
Precipitation  
Precipitation 0.00 in 0.07 in 0.30 in (2006)
Month to date precipitation 0.99  
Year to date precipitation 5.03  
Sea Level Pressure  
Sea Level Pressure 30.12 in    
Wind  
Wind Speed 7 mph (South)    
Max Wind Speed 18 mph    
Max Gust Speed 26 mph    
T = Trace of Precipitation, MM = Missing Value Source: NWS Daily Summary

Daily Weather History Graph

Daily Weather History Graph

Search for Another Location

Airport or City:

Trip Planner

Search our weather history database for the weather conditions in past years. The results will help you decide how hot, cold, wet, or windy it might be!

Date:

Astronomy

Feb. 11, 2013 Rise Set
Actual Time 7:17 AM EST 6:20 PM EST
Civil Twilight 6:52 AM EST 6:44 PM EST
Nautical Twilight 6:24 AM EST 7:12 PM EST
Astronomical Twilight 5:56 AM EST 7:40 PM EST
Moon 7:51 AM EST (2/11) 8:02 PM EST (2/11)
Length of Visible Light 11h 51m
Length of Day
11h 02m
Waxing Crescent, 3% of the Moon is Illuminated
Feb 11
Waxing Crescent
Feb 17
First Quarter
Feb 25
Full
Mar 4
Last Quarter
Mar 11
New

Hourly Weather History & Observations

Time (EST) Temp. Dew Point Humidity Pressure Visibility Wind Dir Wind Speed Gust Speed Precip Events Conditions
12:53 AM 62.1 °F 55.0 °F 78% 30.15 in - Calm Calm - N/A   Unknown
1:53 AM 60.1 °F 55.0 °F 83% 30.14 in - SE 4.6 mph - N/A   Unknown
2:53 AM 57.0 °F 54.0 °F 89% 30.13 in - Calm Calm - N/A   Unknown
3:53 AM 61.0 °F 57.0 °F 87% 30.12 in - ESE 4.6 mph - N/A   Unknown
4:53 AM 62.1 °F 57.0 °F 84% 30.12 in - SSE 6.9 mph - N/A   Unknown
5:53 AM 64.9 °F 59.0 °F 81% 30.12 in - South 9.2 mph - N/A   Unknown
6:53 AM 64.9 °F 60.1 °F 84% 30.14 in - SSE 8.1 mph - N/A   Unknown
7:53 AM 66.0 °F 60.1 °F 81% 30.15 in - South 8.1 mph - N/A   Unknown
8:53 AM 69.1 °F 61.0 °F 75% 30.14 in - South 11.5 mph - N/A   Unknown
9:53 AM 73.0 °F 61.0 °F 66% 30.16 in - South 16.1 mph 23.0 mph N/A   Unknown
10:53 AM 73.0 °F 62.1 °F 68% 30.17 in - South 18.4 mph 26.5 mph N/A   Unknown
11:53 AM 75.0 °F 63.0 °F 66% 30.16 in - South 12.7 mph 23.0 mph N/A   Unknown
12:53 PM 73.9 °F 63.0 °F 68% 30.14 in - South 17.3 mph 23.0 mph N/A   Unknown
1:53 PM 73.9 °F 63.0 °F 68% 30.12 in - SSW 18.4 mph 24.2 mph N/A   Unknown
2:53 PM 73.0 °F 63.0 °F 71% 30.09 in - South 16.1 mph 24.2 mph N/A   Unknown
3:53 PM 73.0 °F 63.0 °F 71% 30.09 in - South 11.5 mph 18.4 mph N/A   Unknown
4:53 PM 71.1 °F 63.0 °F 75% 30.09 in - South 10.4 mph - N/A   Unknown
5:53 PM 70.0 °F 64.0 °F 81% 30.09 in - South 9.2 mph - N/A   Unknown
6:53 PM 69.1 °F 64.0 °F 84% 30.09 in - South 8.1 mph - N/A   Unknown
7:53 PM 69.1 °F 64.0 °F 84% 30.08 in - South 6.9 mph - N/A   Unknown
8:53 PM 69.1 °F 64.0 °F 84% 30.07 in - South 9.2 mph - N/A   Unknown
9:53 PM 68.0 °F 64.0 °F 87% 30.07 in - SSE 6.9 mph - N/A   Unknown
10:53 PM 68.0 °F 64.0 °F 87% 30.08 in - South 5.8 mph - N/A   Unknown
11:53 PM 68.0 °F 64.9 °F 90% 30.07 in - South 8.1 mph - N/A   Unknown